TITAN 3C TRANSTAGE DEB, 43449

Orbit data source: Space-Track

TITAN 3C TRANSTAGE DEB, 43449 is space debris in GEO originally from a launch on Sun, 09 Feb 1969 UTC launched from the Air Force Eastern Test Range (AFETR). Debris objects in space refer to the collection of defunct objects orbiting the Earth. Examples of debris include non-operational satellites, rocket bodies, and fragments generated from explosions, collisions, or faulty payload assembly.

Loading next visibility...
Identifier
43449, 1969-013J
Orbit
GEO
Country
Flag of USUS
Related business
Manufacturer
Martin Marietta
Mission
Spacecraft
Bus & Motor
Unknown
Mass
Unknown
Launch date (UTC)
1969-02-09 (57 years ago)
Launch vehicle
Unknown
Launch site
Air Force Eastern Test Range (AFETR)
Object type
Payload
Rocket body
Debris
Shape & HBR
Unknown shape, 1.1 m
Radar Cross Section
RCS unknown

Expand to show TLE details & history
Last TLE update: 11 hours ago

TLE from 11 hours ago
0 TITAN 3C TRANSTAGE DEB
1 43449U 69013J   26035.14571964 -.00000094  00000-0  00000-0 0  9990
2 43449   1.0859  70.4005 0123907  75.3555 286.5721  0.96589846 27552
Epoch: 2026-02-04T03:29Z
TLE epoch observation values (Epoch: 2026-02-04T03:29:50.176Z)
Latitude
Longitude
-115.78349°
Altitude
36,702.145 km
Speed
3.047 km/s
True Right ascension
04h 43m 58s
True Declination
0° 00' 00"
Sunlit
Object was in daylight at epoch
Visualization orbit readout
Latitude
Unknown
Longitude
Unknown
Altitude
Unknown
Speed
Unknown
Apparent Right ascension
Unknown
Apparent Declination
Unknown
Sunlit
N/A
Visualization observer readout
Local Sidereal Time
16:09:51
Azimuth
Unknown
Elevation
Unknown
Doppler factor
Unknown
Orbital elements
Apogee altitude
37,388.13 km
Perigee altitude
36,316.815 km
Semi-major axis
43,230.609 km
Eccentricity
0.01239
Inclination
1.0859°
RAAN
70.4005°
Arg. of periapsis
75.3555°
True anomaly
285.2053°
Mean anomaly
286.5721°
Eccentric anomaly
285.88929°
Mean motion
0.24147 °/min
Orbital period
1,490.89 mins
BSTAR
0
Loading maneuver chart data...
Computing Atmospheric mass density...

Documentation

Showing up to 5 results
|